Location: Blangy-Tronville
(49.8790°N, 2.4226°E)
Time: 02:44:30
(UTC+00:00)

Landsat 7 - Pass Details

Date: 18 November 2025
Orbit: 680 x 682 km, 97.9° (Epoch: 04 December)

Event Time Altitude Azimuth Distance (km) Brightness Sun altitude
Rises 16:47:45 0° 148° (SSE) 3,032 7.0 -7.4°
Reaches altitude 10° 16:50:02 10° 143° (SE) 2,121 6.1 -7.7°
Maximum altitude 16:54:29 49° 70° (ENE) 886 4.0 -8.4°
Drops below altitude 10° 16:58:59 10° 356° (N) 2,135 6.2 -9.1°
Sets 17:01:17 0° 351° (N) 3,055 7.0 -9.4°
